Location: Wald
(31.7579°N, 86.6655°W)
Time: 21:16:11
(UTC+00:00)

Cosmos 1484 Rocket - Pass Details

Date: 14 July 2020
Orbit: 505 x 560 km, 97.4° (Epoch: 13 August)

Event Time Altitude Azimuth Distance (km) Brightness Sun altitude
Rises 10:00:08 0° 20° (NNE) 2,676 7.3 -10.3°
Reaches altitude 10° 10:02:22 10° 29° (NNE) 1,772 6.5 -9.9°
Maximum altitude 10:05:57 38° 98° (E) 803 4.2 -9.3°
Drops below altitude 10° 10:09:27 10° 168° (SSE) 1,733 5.2 -8.7°
Sets 10:11:37 0° 176° (S) 2,608 6.0 -8.3°
